This is the latest recevied weather packets stored in our database for station/object I1SXT-13. If no packets are shown the sender has not sent any weather packets the latest 10 day(s).
| Time | Temp. | Humidity | Pressure | Rain* | Wind** | Luminosity | Snow |
|---|---|---|---|---|---|---|---|
| 1778204066 | 12.22° C | 80% | 1013.7 hPa | 0 mm | - | - | - |
| 1778203769 | 12.22° C | 80% | 1014.3 hPa | 0 mm | - | - | - |
| 1778203465 | 11.67° C | 82% | 1013.6 hPa | 0 mm | - | - | - |
| 1778203168 | 11.67° C | 81% | 1014.1 hPa | 0 mm | - | - | - |
| 1778202864 | 12.22° C | 78% | 1013.4 hPa | 0 mm | - | - | - |
| 1778202567 | 12.78° C | 76% | 1013.9 hPa | 0 mm | - | - | - |
| 1778202269 | 12.78° C | 74% | 1014.1 hPa | 0 mm | - | - | - |
| 1778201965 | 13.33° C | 72% | 1013.5 hPa | 0 mm | - | - | - |
| 1778201668 | 13.33° C | 72% | 1014.1 hPa | 0 mm | - | - | - |
| 1778201364 | 13.33° C | 71% | 1014.5 hPa | 0 mm | - | - | - |
| 1778201067 | 13.33° C | 71% | 1013.7 hPa | 0 mm | - | - | - |
| 1778200770 | 13.33° C | 71% | 1014 hPa | 0 mm | - | - | - |
| 1778200466 | 13.33° C | 72% | 1014.1 hPa | 0 mm | - | - | - |
| 1778200169 | 13.33° C | 71% | 1014 hPa | 0 mm | - | - | - |
| 1778199865 | 13.33° C | 71% | 1014 hPa | 0 mm | - | - | - |
| 1778199568 | 12.78° C | 73% | 1013.5 hPa | 0 mm | - | - | - |
| 1778199264 | 12.22° C | 76% | 1014 hPa | 0 mm | - | - | - |
| 1778198967 | 11.67° C | 82% | 1014.3 hPa | 0 mm | - | - | - |
| 1778198669 | 12.22° C | 83% | 1014.4 hPa | 0 mm | - | - | - |
| 1778198068 | 12.22° C | 82% | 1014.4 hPa | 0 mm | - | - | - |
| 1778197764 | 12.22° C | 82% | 1014 hPa | 0 mm | - | - | - |
| 1778197170 | 12.78° C | 76% | 1014.5 hPa | 0 mm | - | - | - |
| 1778196866 | 12.22° C | 80% | 1014.5 hPa | 0 mm | - | - | - |
| 1778196569 | 11.67° C | 83% | 1014.4 hPa | 0 mm | - | - | - |
| 1778196265 | 11.67° C | 85% | 1015.2 hPa | 0 mm | - | - | - |
* Rain since midnight (hover to see other rain measurements)
** Current wind speed in m/s (hover to see current wind gust speed)